Regional Weather Roundup
Issued by NWS Columbia, SC

Home | Current Version | Previous Version | Text Only | Print | Product List | Glossary On
Versions: 1 2 3 4 5 6 7 8 9 10 11 12 13 14 15 16 17 18 19 20 21 22 23 24 25 26 27 28 29 30 31 32 33 34 35 36 37 38 39 40 41 42 43 44 45 46 47 48 49 50
000
ASUS42 KCAE 060010
RWRCAE
REGIONAL WEATHER ROUNDUP
NATIONAL WEATHER SERVICE COLUMBIA SC
800 PM EDT TUE MAY 05 2015

NOTE: "FAIR" INDICATES FEW OR NO CLOUDS BELOW 12,000 FEET WITH NO
SIGNIFICANT WEATHER AND/OR OBSTRUCTIONS TO VISIBILITY.

NOT ALL STATIONS ARE QUALITY CONTROLLED BY THE NATIONAL
WEATHER SERVICE. USE DATA WITH CAUTION...ESPECIALLY
DEWPOINT OBSERVATIONS.

SCZ001>056-GAZ040-063>065-077-060100-
...UPSTATE SOUTH CAROLINA...

CITY           SKY/WX    TMP DP  RH WIND       PRES   REMARKS
ANDERSON       CLEAR     74  50  42 SE5       30.23R
6HR MIN TEMP:  74; 6HR MAX TEMP:  82;

LIBERTY        CLEAR     76  55  47 S3        30.23R
6HR MIN TEMP:  76; 6HR MAX TEMP:  82;

SPARTANBURG    CLEAR     77  52  41 CALM      30.22S
CLEMSON        CLEAR     76  52  43 S3        30.24S
6HR MIN TEMP:  76; 6HR MAX TEMP:  83;

GREENVILLE     CLEAR     77  51  40 S7        30.24R
6HR MIN TEMP:  77; 6HR MAX TEMP:  83;

GREENWOOD      CLEAR     74  54  49 SE3       30.24R
6HR MIN TEMP:  74; 6HR MAX TEMP:  82;

GREER          CLEAR     74  55  51 SE5       30.22S
6HR MIN TEMP:  74; 6HR MAX TEMP:  82;

ROCK HILL      CLEAR     76  53  44 CALM      30.24R
6HR MIN TEMP:  76; 6HR MAX TEMP:  81;

CHESTER        CLEAR     77  50  38 S3        30.24R
LAURENS        CLEAR     75  61  60 SE3       30.23R


...CENTRAL SOUTH CAROLINA...

CITY           SKY/WX    TMP DP  RH WIND       PRES   REMARKS
COLUMBIA APT   PTCLDY    77  53  43 SE8       30.22S
6HR MIN TEMP:  76; 6HR MAX TEMP:  83;

COLUMBIA OWENS CLEAR     77  53  43 SE3       30.23S
6HR MIN TEMP:  77; 6HR MAX TEMP:  83;

DARLINGTON     PTCLDY    77  52  41 SE6       30.25R
6HR MIN TEMP:  77; 6HR MAX TEMP:  82;

FLORENCE       PTCLDY    74  54  49 SE13      30.24R
6HR MIN TEMP:  74; 6HR MAX TEMP:  84;

MCENTIRE ANGB  CLEAR     74  54  49 SE8       30.23S
6HR MIN TEMP:  74; 6HR MAX TEMP:  82; 6HR PCP: TRACE;

ORANGEBURG     PTCLDY    75  50  41 E3        30.23S
6HR MIN TEMP:  75; 6HR MAX TEMP:  82;

SUMTER SHAW    CLEAR     75  49  39 S6        30.22S
6HR MIN TEMP:  75; 6HR MAX TEMP:  83;

NEWBERRY       CLEAR     72  55  56 SE3       30.25S
AIKEN          FAIR      73  48  40 SE6       30.26S
BARNWELL       FAIR      77  54  44 E6        30.23S
MANNING        FAIR      72  48  43 CALM      30.24S
CAMDEN         FAIR      73  54  49 CALM      30.23S
LANCASTER      CLEAR     73  59  60 S3        30.23S
WINNSBORO      CLEAR     73  54  49 E3        30.23S


...EASTERN AND COASTAL SOUTH CAROLINA...

CITY           SKY/WX    TMP DP  RH WIND       PRES   REMARKS
MYRTLE BEACH   CLEAR     72  59  64 E6        30.28F
N MYRTLE BCH   CLOUDY    70  60  70 E7        30.26F
6HR MIN TEMP:  70; 6HR MAX TEMP:  76;

CONWAY         FAIR      70  55  60 CALM      30.26S
MARION         FAIR      72  52  49 SE3       30.26R
HARTSVILLE     FAIR      73  50  43 CALM      30.23S
FLORENCE       PTCLDY    74  54  49 SE13      30.24R
6HR MIN TEMP:  74; 6HR MAX TEMP:  84;

DARLINGTON     PTCLDY    77  52  41 SE6       30.25R
6HR MIN TEMP:  77; 6HR MAX TEMP:  82;

CHARLESTON APT CLOUDY    71  58  63 E13       30.25S
6HR MIN TEMP:  71; 6HR MAX TEMP:  80;

MOUNT PLEASANT FAIR      70  61  73 MISG      30.25S
WALTERBORO     MOCLDY    72  55  56 E7        30.24R
BEAUFORT       CLOUDY    71  60  68 E9        30.24R
6HR MIN TEMP:  71; 6HR MAX TEMP:  79;



...EASTERN GEORGIA...

CITY           SKY/WX    TMP DP  RH WIND       PRES   REMARKS
AUGUSTA BUSH F CLEAR     72  53  51 E5        30.21S
6HR MIN TEMP:  72; 6HR MAX TEMP:  83;

AUGUSTA DANIEL CLEAR     78  49  35 E5        30.22S
6HR MIN TEMP:  78; 6HR MAX TEMP:  83;

THOMSON        CLEAR     76  58  53 CALM      30.26S
6HR MIN TEMP:  76; 6HR MAX TEMP:  83;

WASHINGTON     FAIR      77  61  57 CALM      30.22S
CLAXTON        FAIR      73  59  60 E5        30.21S
SYLVANIA       PTCLDY    74  57  54 SE3       30.22S
6HR MIN TEMP:  74; 6HR MAX TEMP:  82;

STATESBORO       N/A     76  53  44 CALM      30.21S
6HR MIN TEMP:  76; 6HR MAX TEMP:  82;

SAVANNAH       CLOUDY    72  56  57 E14       30.23R
6HR MIN TEMP:  72; 6HR MAX TEMP:  79;



...SOUTHERN NORTH CAROLINA...

CITY           SKY/WX    TMP DP  RH WIND       PRES   REMARKS
CHARLOTTE      PTCLDY    75  50  41 S7        30.23S
6HR MIN TEMP:  75; 6HR MAX TEMP:  82;

MONROE         CLEAR     73  56  54 CALM      30.23R
6HR MIN TEMP:  73; 6HR MAX TEMP:  82;

WADESBORO      CLEAR     74  55  50 SE3       30.23S
6HR MIN TEMP:  74; 6HR MAX TEMP:  82;

ROCKINGHAM     CLEAR     76  52  42 SE5       30.24R
6HR MIN TEMP:  76; 6HR MAX TEMP:  82;

RUTHERFORDTON  CLEAR     75  53  46 S3        30.25R
6HR MIN TEMP:  74; 6HR MAX TEMP:  82;

ASHEVILLE      MOCLDY    70  51  51 S5        30.28S
6HR MIN TEMP:  70; 6HR MAX TEMP:  79;


$$


USA.gov is the U.S. government's official web portal to all federal, state and local government web resources and services.